Regional Weather Roundup
Issued by NWS State College, PA

Home | Current Version | Previous Version | Text Only | Print | Product List | Glossary Off
Versions: 1 2 3 4 5 6 7 8 9 10 11 12 13 14 15 16 17 18 19 20 21 22 23 24 25 26 27 28 29 30 31 32 33 34 35 36 37 38 39 40 41 42 43 44 45 46 47 48 49 50

000
ASUS41 KCTP 280603
RWRCTP

REGIONAL WEATHER ROUNDUP
NATIONAL WEATHER SERVICE STATE COLLEGE PA
200 AM EDT TUE APR 28 2015

Note: "fair" indicates few or no clouds below 12,000 feet with no
significant weather and/or obstructions to visibility.

* = STATION THAT DOES NOT REPORT PRECIPITATION /E.G. RAIN...SNOW...ETC/
    THUNDER OR FOG.

PAZ002>004-007>009-013>016-020>023-029>032-280700-
WESTERN PENNSYLVANIA

CITY           SKY/WX    TMP DP  RH WIND       PRES   REMARKS
ERIE           MOCLDY    43  35  73 VRB3      30.04R
MEADVILLE      CLOUDY    42  35  76 N6        30.01S
FRANKLIN*      CLOUDY    39  34  81 NW6       30.01F
NEW CASTLE     CLOUDY    42  37  82 CALM      30.04S
BEAVER COUNTY  NOT AVBL
BUTLER*        CLOUDY    41  36  81 NW5       30.03R
PITTSBURGH INT CLOUDY    42  36  79 NW6       30.03R
PITTSBURGH     CLOUDY    40  33  76 VRB5      30.01S
INDIANA*       CLOUDY    41  37  87 W5        30.02S
LATROBE        CLOUDY    41  37  87 CALM      30.03S
WASHINGTON CO* CLOUDY    39  34  81 CALM      30.05S
$$

PAZ004>006-010>012-017>019-024>028-033>037-041-042-045-046-049>053-280700-
CENTRAL PENNSYLVANIA

CITY           SKY/WX    TMP DP  RH WIND       PRES   REMARKS
BRADFORD       CLOUDY    38  35  89 NW9       29.95S
DUBOIS         CLOUDY    42  36  79 N7        29.95S
CLEARFIELD     CLOUDY    42  35  76 NW7       29.95S
JOHNSTOWN      CLOUDY    37  34  89 W12       29.94S
ALTOONA        CLOUDY    42  35  76 NW7       29.95R
STATE COLLEGE  CLOUDY    44  36  72 CALM      29.92S
WILLIAMSPORT   CLOUDY    48  37  65 W9        29.88S
SELINSGROVE    CLOUDY    50  37  61 NW6       29.88F
FT INDIANTOWN  MOCLDY    49  37  62 NW16G25   29.84S
CAPITAL CITY   CLOUDY    49  35  58 NW9       29.88S
HARRISBURG     CLOUDY    50  35  56 NW14      29.87R
YORK             N/A     47  36  65 NW9       29.87S
$$

PAZ038>040-043-044-047-048-054-055-060>062-067>071-280700-
EASTERN PENNSYLVANIA

CITY           SKY/WX    TMP DP  RH WIND       PRES   REMARKS
SCRANTON       CLOUDY    45  41  86 CALM      29.82S
MOUNT POCONO   CLOUDY    42  38  85 NW14G30   29.77S
ALLENTOWN      CLOUDY    50  38  63 NW14      29.79F
QUAKERTOWN*    CLOUDY    48  39  71 NW9       29.80S
READING        CLOUDY    49  37  63 NW9       29.83S
LANCASTER      CLOUDY    49  36  61 NW10      29.85R
COATESVILLE    CLOUDY    48  37  66 NW9       29.83S
POTTSTOWN      MOCLDY    48  37  65 NW10      29.82S
BLUE BELL      MOCLDY    50  37  62 NW6       29.79S
DOYLESTOWN     MOCLDY    47  37  68 NW6       29.78S
WILLOW GROVE   NOT AVBL
NORTH PHILA    CLOUDY    52  35  52 NW13      29.80R
PHILADELPHIA   CLOUDY    52  36  54 NW16      29.80S
$$



USA.gov is the U.S. government's official web portal to all federal, state and local government web resources and services.